Regional Weather Roundup
Issued by NWS

Home | Current Version | Previous Version | Graphics & Text | Print | Product List | Glossary On
Versions: 1 2 3 4 5 6 7 8 9 10 11 12 13 14 15 16 17 18 19 20 21 22 23 24 25 26 27 28 29 30 31 32 33 34 35 36 37 38 39 40 41 42 43 44 45 46 47 48 49 50
000
ASUS43 KLSX 271807
RWRMO

WEATHER SUMMARY FOR MISSOURI
NATIONAL WEATHER SERVICE SPRINGFIELD MO
100 PM CDT TUE JUN 27 2017

NOTE: "FAIR" INDICATES FEW OR NO CLOUDS BELOW 12,000 FEET WITH NO
       SIGNIFICANT WEATHER AND/OR OBSTRUCTIONS TO VISIBILITY.
       CURRENT SKY AND/OR WEATHER CONDITIONS ARE NOT AVAILABLE FOR
       CHILLICOTHE AND FARMINGTON.

MOZ001>031-035>038-043-044-053-054-271900-
...NORTHERN AND WESTERN MISSOURI...

CITY           SKY/WX    TMP DP  RH WIND       PRES   REMARKS
KANSAS CTY INT PTSUNNY   76  62  62 SE13      30.05F
6HR MIN TEMP:  58; 6HR MAX TEMP:  76;

KANSAS C DTWN  MOSUNNY   78  61  55 SE12G20   30.04F
6HR MIN TEMP:  60; 6HR MAX TEMP:  79;

LEE`S SUMMIT   SUNNY     76  61  59 SE13      30.06F
6HR MIN TEMP:  58; 6HR MAX TEMP:  77;

ST JOSEPH      SUNNY     75  63  66 SE14      30.04F
6HR MIN TEMP:  54; 6HR MAX TEMP:  76;

CHILLICOTHE      N/A     76  58  53 S9G16     30.09F
6HR MIN TEMP:  55; 6HR MAX TEMP:  77;

KIRKSVILLE     SUNNY     76  54  46 VRB7      30.10F
6HR MIN TEMP:  57; 6HR MAX TEMP:  76;


$$
MOZ066>068-077>081-088>096-101>105-271900-
...SOUTHWEST MISSOURI...

CITY           SKY/WX    TMP DP  RH WIND       PRES   REMARKS
SPRINGFIELD    SUNNY     77  65  66 SE8       30.09F
6HR MIN TEMP:  60; 6HR MAX TEMP:  78;

JOPLIN         MOSUNNY   82  69  64 SE5       30.06F
6HR MIN TEMP:  63; 6HR MAX TEMP:  83;

BRANSON        PTSUNNY   79  63  57 E7        30.11F

$$
MOZ032>034-039>042-045>050-055>058-069>072-271900-
...CENTRAL MISSOURI...

CITY           SKY/WX    TMP DP  RH WIND       PRES   REMARKS
COLUMBIA       SUNNY     76  58  53 S6        30.12F
6HR MIN TEMP:  55; 6HR MAX TEMP:  76;

JEFFERSON CITY SUNNY     75  58  55 SE9       30.10F
6HR MIN TEMP:  56; 6HR MAX TEMP:  75;

ROLLA          SUNNY     75  57  53 MISG      30.11
6HR MIN TEMP:  59; 6HR MAX TEMP:  75;

SEDALIA        SUNNY     77  64  64 SE8       30.10F
6HR MIN TEMP:  58; 6HR MAX TEMP:  78;

WHITEMAN AFB   MOSUNNY   76  65  69 S8        30.07F
WARRENSBURG    SUNNY     77  61  57 SE13      30.08F
OSAGE BEACH    MOSUNNY   75  60  59 S6        30.12F

$$
MOZ051-052-059>065-271900-
...EAST CENTRAL MISSOURI...

CITY           SKY/WX    TMP DP  RH WIND       PRES   REMARKS
ST LOUIS INTL  MOSUNNY   77  51  40 E6        30.13F
6HR MIN TEMP:  63; 6HR MAX TEMP:  80;

SPIRIT OF STL  MOSUNNY   77  54  44 SE9       30.11F
6HR MIN TEMP:  56; 6HR MAX TEMP:  78;

ST CHARLES     MOSUNNY   77  53  43 VRB5      30.12F
6HR MIN TEMP:  57; 6HR MAX TEMP:  77;


$$
MOZ072>076-082>087-097>100-106>115-271900-
...SOUTH CENTRAL AND SOUTHEAST MISSOURI...

CITY           SKY/WX    TMP DP  RH WIND       PRES   REMARKS
CAPE GIRARDEAU SUNNY     77  54  44 VRB5      30.12F
6HR MIN TEMP:  60; 6HR MAX TEMP:  77;

FARMINGTON     SUNNY     76  55  48 SE7       30.14F
6HR MIN TEMP:  58; 6HR MAX TEMP:  76;

POPLAR BLUFF   SUNNY     76  59  55 CALM      30.12S
6HR MIN TEMP:  64; 6HR MAX TEMP:  78;

WEST PLAINS    PTSUNNY   74  60  61 SE7       30.14S
6HR MIN TEMP:  61; 6HR MAX TEMP:  76;


$$




USA.gov is the U.S. government's official web portal to all federal, state and local government web resources and services.